Regional Weather Roundup
Issued by NWS

Home | Current Version | Previous Version | Graphics & Text | Print | Product List | Glossary On
Versions: 1 2 3 4 5 6 7 8 9 10 11 12 13 14 15 16 17 18 19 20 21 22 23 24 25 26 27 28 29 30 31 32 33 34 35 36 37 38 39 40 41 42 43 44 45 46 47 48 49 50
000
ASUS43 KLSX 171807
RWRMO

WEATHER SUMMARY FOR MISSOURI
NATIONAL WEATHER SERVICE SPRINGFIELD MO
100 PM CDT WED SEP 17 2014

NOTE: "FAIR" INDICATES FEW OR NO CLOUDS BELOW 12,000 FEET WITH NO
       SIGNIFICANT WEATHER AND/OR OBSTRUCTIONS TO VISIBILITY.
       CURRENT SKY AND/OR WEATHER CONDITIONS ARE NOT AVAILABLE FOR
       CHILLICOTHE AND FARMINGTON.

MOZ001>031-035>038-043-044-053-054-171900-
...NORTHERN AND WESTERN MISSOURI...

CITY           SKY/WX    TMP DP  RH WIND       PRES   REMARKS
KANSAS CTY INT CLOUDY    70  66  87 E5        29.94S
6HR MIN TEMP:  62; 6HR MAX TEMP:  70; 6HR PCP: TRACE;

KANSAS C DTWN  CLOUDY    70  65  84 E5        29.93S
6HR MIN TEMP:  64; 6HR MAX TEMP:  70;

LEE`S SUMMIT   CLOUDY    67  65  93 E6        29.95S
6HR MIN TEMP:  62; 6HR MAX TEMP:  68; 6HR PCP:  0.04;

ST JOSEPH      CLOUDY    69  64  84 VRB3      29.94F
6HR MIN TEMP:  63; 6HR MAX TEMP:  69;

CHILLICOTHE      N/A     72  64  76 VRB3      29.96F
6HR MIN TEMP:  60; 6HR MAX TEMP:  72;

KIRKSVILLE     CLOUDY    68  61  78 E6        29.97F
6HR MIN TEMP:  56; 6HR MAX TEMP:  68; 6HR PCP: TRACE;


$$
MOZ066>068-077>081-088>096-101>105-171900-
...SOUTHWEST MISSOURI...

CITY           SKY/WX    TMP DP  RH WIND       PRES   REMARKS
SPRINGFIELD    TSTM      64  63  96 SE9       29.98R FOG
6HR MIN TEMP:  64; 6HR MAX TEMP:  68; 6HR PCP:  3.09;

JOPLIN         FAIR      84  71  65 W16       29.91F
6HR MIN TEMP:  71; 6HR MAX TEMP:  85; 6HR PCP: TRACE;


$$
MOZ032>034-039>042-045>050-055>058-069>072-171900-
...CENTRAL MISSOURI...

CITY           SKY/WX    TMP DP  RH WIND       PRES   REMARKS
COLUMBIA       CLOUDY    64  32  30 SE6       29.96F HAZE
                                      6HR PCP:  0.01;

JEFFERSON CITY CLOUDY    67  62  84 SE5       29.96S
6HR MIN TEMP:  59; 6HR MAX TEMP:  68; 6HR PCP:  0.23;

ROLLA          CLOUDY    65  61  87 SW9       29.97R
6HR MIN TEMP:  56; 6HR MAX TEMP:  65; 6HR PCP:  0.27;

SEDALIA        CLOUDY    69  66  90 SE3       29.95F
6HR MIN TEMP:  63; 6HR MAX TEMP:  69; 6HR PCP:  0.33;

WHITEMAN AFB   CLOUDY    69  66  92 S3        29.94S FOG
OSAGE BEACH    CLOUDY    70  64  83 S6        29.96S

$$
MOZ051-052-059>065-171900-
...EAST CENTRAL MISSOURI...

CITY           SKY/WX    TMP DP  RH WIND       PRES   REMARKS
ST LOUIS INTL  CLOUDY    62  56  80 E10       30.01F
6HR MIN TEMP:  55; 6HR MAX TEMP:  62; 6HR PCP:  0.08;

SPIRIT OF STL  CLOUDY    64  57  78 SE9       29.97F
6HR MIN TEMP:  50; 6HR MAX TEMP:  64; 6HR PCP:  0.06;

ST CHARLES     CLOUDY    59  55  87 E9        30.01F
6HR MIN TEMP:  49; 6HR MAX TEMP:  62; 6HR PCP:  0.02;


$$
MOZ072>076-082>087-097>100-106>115-171900-
...SOUTH CENTRAL AND SOUTHEAST MISSOURI...

CITY           SKY/WX    TMP DP  RH WIND       PRES   REMARKS
CAPE GIRARDEAU FAIR      61  57  87 E3        30.02F
6HR MIN TEMP:  50; 6HR MAX TEMP:  61; 6HR PCP:  0.04;

FARMINGTON     CLOUDY    57  55  94 S8        30.02S
6HR MIN TEMP:  52; 6HR MAX TEMP:  57; 6HR PCP:  0.05;

POPLAR BLUFF   LGT RAIN  59  55  87 S3        30.01F FOG
6HR MIN TEMP:  56; 6HR MAX TEMP:  59; 6HR PCP:  0.09;

WEST PLAINS    TSTM      59  57  93 S13       30.02F FOG
6HR MIN TEMP:  59; 6HR MAX TEMP:  62; 6HR PCP:  0.75;


$$


USA.gov is the U.S. government's official web portal to all federal, state and local government web resources and services.